Regional Weather Roundup
Issued by NWS

Home | Current Version | Previous Version | Text Only | Print | Product List | Glossary On
Versions: 1 2 3 4 5 6 7 8 9 10 11 12 13 14 15 16 17 18 19 20 21 22 23 24 25 26 27 28 29 30 31 32 33 34 35 36 37 38 39 40 41 42 43 44 45 46 47 48 49 50
000
ASUS43 KLSX 221959
RWRMO

WEATHER SUMMARY FOR MISSOURI
NATIONAL WEATHER SERVICE SPRINGFIELD MO
300 PM CDT FRI AUG 22 2014

NOTE: "FAIR" INDICATES FEW OR NO CLOUDS BELOW 12,000 FEET WITH NO
       SIGNIFICANT WEATHER AND/OR OBSTRUCTIONS TO VISIBILITY.
       CURRENT SKY AND/OR WEATHER CONDITIONS ARE NOT AVAILABLE FOR
       CHILLICOTHE AND FARMINGTON.

MOZ001>031-035>038-043-044-053-054-222100-
...NORTHERN AND WESTERN MISSOURI...

CITY           SKY/WX    TMP DP  RH WIND       PRES   REMARKS
KANSAS CTY INT PTSUNNY   88  75  65 S9        29.93F HX  97
KANSAS C DTWN  PTSUNNY   92  74  55 S9        29.91F HX 101
LEE`S SUMMIT   PTSUNNY   89  75  63 S6        29.95S HX  99
ST JOSEPH      CLOUDY    86  76  71 S8        29.92S HX  96
KIRKSVILLE     PTSUNNY   88  77  69 S6        29.95F HX 100

$$
MOZ066>068-077>081-088>096-101>105-222100-
...SOUTHWEST MISSOURI...

CITY           SKY/WX    TMP DP  RH WIND       PRES   REMARKS
SPRINGFIELD    SUNNY     98  66  34 SW16      29.98F HX 101
JOPLIN         SUNNY     99  68  36 SW17      29.97S HX 104

$$
MOZ032>034-039>042-045>050-055>058-069>072-222100-
...CENTRAL MISSOURI...

CITY           SKY/WX    TMP DP  RH WIND       PRES   REMARKS
COLUMBIA       MOSUNNY   93  75  55 S8        29.96F HX 104
JEFFERSON CITY MOSUNNY   91  76  61 E5        29.94F HX 103
ROLLA          MOSUNNY   94  69  44 SE3       29.96F HX  99
SEDALIA        PTSUNNY   93  75  55 S9        29.96F HX 104
OSAGE BEACH    SUNNY     97  72  44 CALM      29.95F HX 105

$$
MOZ051-052-059>065-222100-
...EAST CENTRAL MISSOURI...

CITY           SKY/WX    TMP DP  RH WIND       PRES   REMARKS
ST LOUIS INTL  PTSUNNY   94  73  50 SW10G16   29.96F HX 103
SPIRIT OF STL  PTSUNNY   91  74  57 SE8       29.95F HX 100
ST CHARLES     PTSUNNY   92  75  57 S7        29.94F HX 103

$$
MOZ072>076-082>087-097>100-106>115-222100-
...SOUTH CENTRAL AND SOUTHEAST MISSOURI...

CITY           SKY/WX    TMP DP  RH WIND       PRES   REMARKS
CAPE GIRARDEAU MOSUNNY   92  77  61 S7        29.98F HX 105
FARMINGTON     PTSUNNY   91  73  55 E8        30.01F HX 100
POPLAR BLUFF   MOSUNNY   92  75  57 S8        29.97F HX 103
WEST PLAINS    MOSUNNY   94  69  44 MISG      30.02F HX  99

$$



USA.gov is the U.S. government's official web portal to all federal, state and local government web resources and services.